Location: Newark
(52.2090°N, 4.1550°W)
Time: 10:35:38
(UTC+00:00)

Explorer 7 - Visible Passes

Search period start: 16 September 2019 00:00
Search period end: 26 September 2019 00:00
Orbit: 485 x 680 km, 50.3° (Epoch: 16 September)

Date Brightness Start Highest point End Pass type
(mag) Time Alt. Az. Time Alt. Az. Time Alt. Az.
16 Sep 9.6 01:37:08 15° E 01:37:08 15° E 01:38:02 10° E visible
16 Sep 7.1 03:13:27 68° SSW 03:13:47 71° S 03:18:42 10° E visible
16 Sep 7.4 04:49:47 12° W 04:54:17 57° SSW 04:59:06 10° ESE visible
17 Sep 9.6 01:42:02 16° E 01:42:02 16° E 01:43:05 10° E visible
17 Sep 7.1 03:18:22 67° SW 03:18:47 72° S 03:23:42 10° E visible
17 Sep 7.6 04:54:42 11° W 04:59:14 47° SSW 05:03:56 10° SE visible
18 Sep 9.5 01:47:00 17° E 01:47:00 17° E 01:48:07 10° E visible
18 Sep 7.1 03:23:20 64° SW 03:23:48 69° S 03:28:42 10° ESE visible
18 Sep 7.9 04:59:41 10° W 05:04:07 38° SSW 05:08:39 10° SE visible
19 Sep 9.6 01:52:05 16° E 01:52:05 16° E 01:53:09 10° E visible
19 Sep 7.2 03:28:25 60° SW 03:28:47 62° SSW 03:33:39 10° ESE visible
19 Sep 8.2 05:04:46 10° W 05:08:58 30° SSW 05:13:13 10° SSE visible
20 Sep 9.6 01:57:17 15° E 01:57:17 15° E 01:58:09 10° E visible
20 Sep 7.3 03:33:38 54° SSW 03:33:44 54° SSW 03:38:33 10° ESE visible
20 Sep 8.6 05:10:01 10° W 05:13:46 22° SW 05:17:33 10° SSE visible
21 Sep 9.8 02:02:38 13° ESE 02:02:38 13° ESE 02:03:10 10° E visible
21 Sep 7.6 03:39:01 43° SSW 03:39:01 43° SSW 03:43:20 10° SE visible
21 Sep 8.9 05:15:31 10° W 05:18:30 16° SW 05:21:30 10° S visible
22 Sep 8.1 03:44:34 32° S 03:44:34 32° S 03:48:01 10° SE visible
22 Sep 9.2 05:21:49 10° WSW 05:23:11 11° SW 05:24:33 10° SSW visible
23 Sep 8.8 03:50:22 21° S 03:50:22 21° S 03:52:30 10° SSE visible
24 Sep 9.5 03:56:24 11° S 03:56:24 11° S 03:56:43 10° S visible
